"Sample Date","Sample Time","Sample Value","Units","Flow Rate","Laser Status","Micron Size 0","Counts/Channel 0","Micron Size 1","Counts/Channel 1","Micron Size 2","Counts/Channel 2","Micron Size 3","Counts/Channel 3","Micron Size 4","Counts/Channel 4","Micron Size 5","Counts/Channel 5","Micron Size 6","Counts/Channel 6","Micron Size 7","Counts/Channel 7","Micron Size 8","Counts/Channel 8","Micron Size 9","Counts/Channel 9","Micron Size 10","Counts/Channel 10","Micron Size 11","Counts/Channel 11","Micron Size 12","Counts/Channel 12","Micron Size 13","Counts/Channel 13","Micron Size 14","Counts/Channel 14","Micron Size 15","Counts/Channel 15","Micron Size 16","Counts/Channel 16","Micron Size 17","Counts/Channel 17","Micron Size 18","Counts/Channel 18","Micron Size 19","Counts/Channel 19","Micron Size 20","Counts/Channel 20","Micron Size 21","Counts/Channel 21","Micron Size 22","Counts/Channel 22","Micron Size 23","Counts/Channel 23","Micron Size 24","Counts/Channel 24","Micron Size 25","Counts/Channel 25","Micron Size 26","Counts/Channel 26","Micron Size 27","Counts/Channel 27","Micron Size 28","Counts/Channel 28","Micron Size 29","Counts/Channel 29","Micron Size 30","Counts/Channel 30","Micron Size 31","Counts/Channel 31"
"05/03/07","02:00:05",92798.000,"cc",28340.231,1,0.100,72920.000,0.200,17755.000,0.300,2068.000,0.500,50.000,1.000,5.000,5.000,0
"05/03/07","02:00:11",93621.000,"cc",28300.059,1,0.100,73665.000,0.200,17743.000,0.300,2129.000,0.500,77.000,1.000,7.000,5.000,0
"05/03/07","02:00:17",94052.000,"cc",28280.684,1,0.100,73750.000,0.200,18101.000,0.300,2147.000,0.500,48.000,1.000,6.000,5.000,0
"05/03/07","02:00:23",95184.000,"cc",28255.645,1,0.100,74845.000,0.200,18110.000,0.300,2136.000,0.500,88.000,1.000,5.000,5.000,0
"05/03/07","02:00:29",96198.000,"cc",28349.731,1,0.100,75591.000,0.200,18407.000,0.300,2113.000,0.500,82.000,1.000,5.000,5.000,0
"05/03/07","02:00:35",96731.000,"cc",28337.270,1,0.100,75771.000,0.200,18630.000,0.300,2259.000,0.500,62.000,1.000,9.000,5.000,0
"05/03/07","02:00:41",96565.000,"cc",28322.549,1,0.100,75806.000,0.200,18435.000,0.300,2252.000,0.500,69.000,1.000,3.000,5.000,0
"05/03/07","02:00:47",96929.000,"cc",28303.031,1,0.100,75911.000,0.200,18741.000,0.300,2183.000,0.500,86.000,1.000,8.000,5.000,0
"05/03/07","02:00:53",97649.000,"cc",28371.068,1,0.100,76420.000,0.200,18939.000,0.300,2221.000,0.500,69.000,1.000,0,5.000,0
"05/03/07","02:00:59",97831.000,"cc",28319.697,1,0.100,76808.000,0.200,18736.000,0.300,2220.000,0.500,63.000,1.000,4.000,5.000,0
"05/03/07","02:01:05",97891.000,"cc",28356.315,1,0.100,77012.000,0.200,18516.000,0.300,2272.000,0.500,84.000,1.000,7.000,5.000,0
"05/03/07","02:01:11",99258.000,"cc",28330.600,1,0.100,77901.000,0.200,18940.000,0.300,2338.000,0.500,73.000,1.000,6.000,5.000,0
"05/03/07","02:01:17",99186.000,"cc",28326.461,1,0.100,77768.000,0.200,19067.000,0.300,2287.000,0.500,61.000,1.000,3.000,5.000,0
"05/03/07","02:01:23",99642.000,"cc",28300.225,1,0.100,78184.000,0.200,19146.000,0.300,2231.000,0.500,77.000,1.000,4.000,5.000,0
"05/03/07","02:01:29",99231.000,"cc",28251.367,1,0.100,77700.000,0.200,19150.000,0.300,2298.000,0.500,79.000,1.000,4.000,5.000,0
"05/03/07","02:01:35",99744.000,"cc",28369.147,1,0.100,78074.000,0.200,19211.000,0.300,2380.000,0.500,75.000,1.000,4.000,5.000,0
"05/03/07","02:01:41",99905.000,"cc",28322.574,1,0.100,78290.000,0.200,19178.000,0.300,2364.000,0.500,71.000,1.000,2.000,5.000,0
"05/03/07","02:01:47",99691.000,"cc",28277.742,1,0.100,78051.000,0.200,19374.000,0.300,2205.000,0.500,57.000,1.000,4.000,5.000,0
"05/03/07","02:01:53",99747.000,"cc",28289.219,1,0.100,78188.000,0.200,19244.000,0.300,2224.000,0.500,84.000,1.000,7.000,5.000,0
"05/03/07","02:01:59",100006.000,"cc",28315.389,1,0.100,78461.000,0.200,19265.000,0.300,2228.000,0.500,45.000,1.000,7.000,5.000,0
"05/03/07","02:02:05",100603.000,"cc",28297.070,1,0.100,79113.000,0.200,19184.000,0.300,2230.000,0.500,73.000,1.000,3.000,5.000,0
"05/03/07","02:02:11",101704.000,"cc",28360.244,1,0.100,79812.000,0.200,19568.000,0.300,2249.000,0.500,71.000,1.000,4.000,5.000,0
"05/03/07","02:02:17",101626.000,"cc",28342.178,1,0.100,79776.000,0.200,19474.000,0.300,2298.000,0.500,73.000,1.000,5.000,5.000,0
"05/03/07","02:02:23",101300.000,"cc",28319.766,1,0.100,79357.000,0.200,19532.000,0.300,2331.000,0.500,71.000,1.000,9.000,5.000,0
"05/03/07","02:02:29",101488.000,"cc",28347.186,1,0.100,79459.000,0.200,19765.000,0.300,2187.000,0.500,73.000,1.000,4.000,5.000,0
"05/03/07","02:02:35",101336.000,"cc",28284.467,1,0.100,79787.000,0.200,19272.000,0.300,2217.000,0.500,56.000,1.000,4.000,5.000,0
"05/03/07","02:02:41",101378.000,"cc",28344.604,1,0.100,79383.000,0.200,19545.000,0.300,2372.000,0.500,72.000,1.000,6.000,5.000,0
"05/03/07","02:02:47",101338.000,"cc",28289.195,1,0.100,79507.000,0.200,19554.000,0.300,2205.000,0.500,65.000,1.000,7.000,5.000,0
"05/03/07","02:02:53",101511.000,"cc",28306.248,1,0.100,79695.000,0.200,19422.000,0.300,2321.000,0.500,70.000,1.000,3.000,5.000,0
"05/03/07","02:02:59",101318.000,"cc",28346.119,1,0.100,79399.000,0.200,19489.000,0.300,2347.000,0.500,78.000,1.000,5.000,5.000,0
"05/03/07","02:03:05",101199.000,"cc",28312.594,1,0.100,79417.000,0.200,19462.000,0.300,2255.000,0.500,63.000,1.000,2.000,5.000,0
"05/03/07","02:03:11",101839.000,"cc",28312.846,1,0.100,80107.000,0.200,19378.000,0.300,2294.000,0.500,56.000,1.000,4.000,5.000,0
"05/03/07","02:03:17",102122.000,"cc",28299.469,1,0.100,80073.000,0.200,19628.000,0.300,2337.000,0.500,78.000,1.000,6.000,5.000,0
"05/03/07","02:03:23",101972.000,"cc",28302.811,1,0.100,80157.000,0.200,19494.000,0.300,2248.000,0.500,69.000,1.000,4.000,5.000,0
"05/03/07","02:03:29",102225.000,"cc",28296.502,1,0.100,80354.000,0.200,19499.000,0.300,2297.000,0.500,69.000,1.000,6.000,5.000,0
"05/03/07","02:03:35",101399.000,"cc",28347.881,1,0.100,79737.000,0.200,19334.000,0.300,2248.000,0.500,75.000,1.000,5.000,5.000,0
"05/03/07","02:03:41",102221.000,"cc",28258.027,1,0.100,80366.000,0.200,19501.000,0.300,2290.000,0.500,58.000,1.000,6.000,5.000,0
"05/03/07","02:03:47",101848.000,"cc",28332.947,1,0.100,80001.000,0.200,19501.000,0.300,2281.000,0.500,64.000,1.000,1.000,5.000,0
"05/03/07","02:03:53",100806.000,"cc",28347.393,1,0.100,79130.000,0.200,19394.000,0.300,2210.000,0.500,68.000,1.000,4.000,5.000,0
"05/03/07","02:03:59",101111.000,"cc",28319.359,1,0.100,79443.000,0.200,19352.000,0.300,2243.000,0.500,67.000,1.000,6.000,5.000,0
"05/03/07","02:04:05",100884.000,"cc",28297.904,1,0.100,79274.000,0.200,19232.000,0.300,2308.000,0.500,62.000,1.000,8.000,5.000,0
"05/03/07","02:04:11",101318.000,"cc",28274.529,1,0.100,79616.000,0.200,19369.000,0.300,2267.000,0.500,60.000,1.000,6.000,5.000,0
"05/03/07","02:04:17",101035.000,"cc",28309.469,1,0.100,79226.000,0.200,19492.000,0.300,2237.000,0.500,76.000,1.000,4.000,5.000,0
"05/03/07","02:04:23",100501.000,"cc",28371.520,1,0.100,78884.000,0.200,19231.000,0.300,2307.000,0.500,70.000,1.000,9.000,5.000,0
"05/03/07","02:04:29",100553.000,"cc",28348.535,1,0.100,78971.000,0.200,19196.000,0.300,2295.000,0.500,83.000,1.000,8.000,5.000,0
"05/03/07","02:04:35",100458.000,"cc",28384.023,1,0.100,78781.000,0.200,19364.000,0.300,2237.000,0.500,73.000,1.000,3.000,5.000,0
"05/03/07","02:04:41",99476.000,"cc",28326.998,1,0.100,77895.000,0.200,19271.000,0.300,2241.000,0.500,63.000,1.000,6.000,5.000,0
"05/03/07","02:04:47",99345.000,"cc",28320.231,1,0.100,78056.000,0.200,18969.000,0.300,2240.000,0.500,73.000,1.000,7.000,5.000,0
"05/03/07","02:04:53",99133.000,"cc",28279.264,1,0.100,77814.000,0.200,18979.000,0.300,2257.000,0.500,74.000,1.000,9.000,5.000,0
"05/03/07","02:04:59",98924.000,"cc",28261.947,1,0.100,77632.000,0.200,18993.000,0.300,2228.000,0.500,67.000,1.000,4.000,5.000,0
"05/03/07","02:05:05",98669.000,"cc",28332.988,1,0.100,77511.000,0.200,18929.000,0.300,2162.000,0.500,63.000,1.000,4.000,5.000,0
"05/03/07","02:05:11",98990.000,"cc",28340.293,1,0.100,77556.000,0.200,19148.000,0.300,2226.000,0.500,54.000,1.000,6.000,5.000,0
"05/03/07","02:05:17",98024.000,"cc",28358.455,1,0.100,76963.000,0.200,18833.000,0.300,2155.000,0.500,66.000,1.000,7.000,5.000,0
"05/03/07","02:05:23",98203.000,"cc",28375.211,1,0.100,77109.000,0.200,18793.000,0.300,2236.000,0.500,61.000,1.000,4.000,5.000,0
"05/03/07","02:05:29",97533.000,"cc",28302.529,1,0.100,76342.000,0.200,18939.000,0.300,2176.000,0.500,70.000,1.000,6.000,5.000,0
"05/03/07","02:05:35",98113.000,"cc",28230.180,1,0.100,77057.000,0.200,18760.000,0.300,2210.000,0.500,77.000,1.000,9.000,5.000,0
"05/03/07","02:05:41",96815.000,"cc",28286.297,1,0.100,75977.000,0.200,18628.000,0.300,2146.000,0.500,62.000,1.000,2.000,5.000,0
"05/03/07","02:05:47",96679.000,"cc",28341.322,1,0.100,75955.000,0.200,18556.000,0.300,2090.000,0.500,69.000,1.000,9.000,5.000,0
"05/03/07","02:05:53",97348.000,"cc",28310.063,1,0.100,76233.000,0.200,18799.000,0.300,2261.000,0.500,53.000,1.000,2.000,5.000,0
"05/03/07","02:05:59",97421.000,"cc",28311.805,1,0.100,76449.000,0.200,18648.000,0.300,2264.000,0.500,56.000,1.000,4.000,5.000,0
"05/03/07","02:06:05",97401.000,"cc",28306.732,1,0.100,76486.000,0.200,18666.000,0.300,2185.000,0.500,58.000,1.000,6.000,5.000,0
"05/03/07","02:06:11",96661.000,"cc",28386.391,1,0.100,75915.000,0.200,18427.000,0.300,2251.000,0.500,62.000,1.000,6.000,5.000,0
"05/03/07","02:06:17",96174.000,"cc",28343.065,1,0.100,75766.000,0.200,18187.000,0.300,2148.000,0.500,69.000,1.000,4.000,5.000,0
"05/03/07","02:06:23",95282.000,"cc",28279.656,1,0.100,74643.000,0.200,18416.000,0.300,2155.000,0.500,62.000,1.000,6.000,5.000,0
"05/03/07","02:06:29",95171.000,"cc",28226.484,1,0.100,74581.000,0.200,18415.000,0.300,2112.000,0.500,55.000,1.000,8.000,5.000,0
"05/03/07","02:06:35",96629.000,"cc",28243.318,1,0.100,75880.000,0.200,18484.000,0.300,2199.000,0.500,65.000,1.000,1.000,5.000,0
"05/03/07","02:06:41",95706.000,"cc",28395.582,1,0.100,75239.000,0.200,18188.000,0.300,2202.000,0.500,70.000,1.000,7.000,5.000,0
"05/03/07","02:06:47",94348.000,"cc",28376.305,1,0.100,73978.000,0.200,18128.000,0.300,2181.000,0.500,57.000,1.000,4.000,5.000,0
"05/03/07","02:06:53",94227.000,"cc",28246.160,1,0.100,73991.000,0.200,18128.000,0.300,2044.000,0.500,59.000,1.000,5.000,5.000,0
"05/03/07","02:06:59",94467.000,"cc",28265.381,1,0.100,74168.000,0.200,18116.000,0.300,2105.000,0.500,74.000,1.000,4.000,5.000,0
"05/03/07","02:07:05",93980.000,"cc",28319.570,1,0.100,73922.000,0.200,17887.000,0.300,2108.000,0.500,59.000,1.000,4.000,5.000,0
"05/03/07","02:07:11",93881.000,"cc",28333.779,1,0.100,73715.000,0.200,17879.000,0.300,2213.000,0.500,67.000,1.000,7.000,5.000,0
"05/03/07","02:07:17",93726.000,"cc",28320.756,1,0.100,73598.000,0.200,17900.000,0.300,2159.000,0.500,65.000,1.000,4.000,5.000,0
"05/03/07","02:07:23",93662.000,"cc",28352.504,1,0.100,73644.000,0.200,17884.000,0.300,2066.000,0.500,63.000,1.000,5.000,5.000,0
"05/03/07","02:07:29",92530.000,"cc",28402.373,1,0.100,72701.000,0.200,17727.000,0.300,2046.000,0.500,52.000,1.000,4.000,5.000,0
"05/03/07","02:07:35",92896.000,"cc",28323.912,1,0.100,73085.000,0.200,17674.000,0.300,2082.000,0.500,50.000,1.000,5.000,5.000,0
"05/03/07","02:07:41",92904.000,"cc",28268.490,1,0.100,73021.000,0.200,17745.000,0.300,2059.000,0.500,73.000,1.000,6.000,5.000,0
"05/03/07","02:07:47",92753.000,"cc",28368.232,1,0.100,72743.000,0.200,17845.000,0.300,2100.000,0.500,63.000,1.000,2.000,5.000,0
"05/03/07","02:07:53",92382.000,"cc",28339.420,1,0.100,72637.000,0.200,17504.000,0.300,2154.000,0.500,81.000,1.000,6.000,5.000,0
"05/03/07","02:07:59",92990.000,"cc",28282.943,1,0.100,73073.000,0.200,17740.000,0.300,2111.000,0.500,62.000,1.000,4.000,5.000,0
"05/03/07","02:08:05",92706.000,"cc",28307.211,1,0.100,72877.000,0.200,17637.000,0.300,2112.000,0.500,74.000,1.000,6.000,5.000,0
"05/03/07","02:08:11",92603.000,"cc",28274.227,1,0.100,72887.000,0.200,17630.000,0.300,1994.000,0.500,86.000,1.000,6.000,5.000,0
"05/03/07","02:08:17",92615.000,"cc",28315.443,1,0.100,72871.000,0.200,17652.000,0.300,2011.000,0.500,74.000,1.000,7.000,5.000,0
"05/03/07","02:08:23",92853.000,"cc",28305.652,1,0.100,72854.000,0.200,17798.000,0.300,2122.000,0.500,74.000,1.000,5.000,5.000,0
"05/03/07","02:08:29",92481.000,"cc",28322.045,1,0.100,72577.000,0.200,17737.000,0.300,2091.000,0.500,72.000,1.000,4.000,5.000,0
"05/03/07","02:08:35",92669.000,"cc",28320.244,1,0.100,72985.000,0.200,17502.000,0.300,2114.000,0.500,65.000,1.000,3.000,5.000,0
"05/03/07","02:08:41",92161.000,"cc",28316.400,1,0.100,72408.000,0.200,17598.000,0.300,2092.000,0.500,57.000,1.000,6.000,5.000,0
"05/03/07","02:08:47",92455.000,"cc",28255.184,1,0.100,72636.000,0.200,17631.000,0.300,2127.000,0.500,60.000,1.000,1.000,5.000,0
"05/03/07","02:08:53",92306.000,"cc",28340.758,1,0.100,72412.000,0.200,17706.000,0.300,2104.000,0.500,78.000,1.000,6.000,5.000,0
"05/03/07","02:08:59",92552.000,"cc",28347.117,1,0.100,72560.000,0.200,17817.000,0.300,2103.000,0.500,69.000,1.000,3.000,5.000,0
"05/03/07","02:09:05",93140.000,"cc",28362.670,1,0.100,73394.000,0.200,17523.000,0.300,2158.000,0.500,60.000,1.000,5.000,5.000,0
"05/03/07","02:09:11",92916.000,"cc",28339.213,1,0.100,73044.000,0.200,17592.000,0.300,2217.000,0.500,59.000,1.000,4.000,5.000,0
"05/03/07","02:09:17",93673.000,"cc",28269.258,1,0.100,73558.000,0.200,17912.000,0.300,2115.000,0.500,85.000,1.000,3.000,5.000,0
"05/03/07","02:09:23",93121.000,"cc",28332.393,1,0.100,73145.000,0.200,17777.000,0.300,2139.000,0.500,57.000,1.000,3.000,5.000,0
"05/03/07","02:09:29",92800.000,"cc",28284.639,1,0.100,72791.000,0.200,17798.000,0.300,2143.000,0.500,61.000,1.000,7.000,5.000,0
"05/03/07","02:09:35",92699.000,"cc",28322.781,1,0.100,72598.000,0.200,17938.000,0.300,2083.000,0.500,74.000,1.000,6.000,5.000,0
"05/03/07","02:09:41",92754.000,"cc",28273.277,1,0.100,72743.000,0.200,17878.000,0.300,2052.000,0.500,77.000,1.000,4.000,5.000,0
"05/03/07","02:09:47",92681.000,"cc",28292.488,1,0.100,72922.000,0.200,17668.000,0.300,2005.000,0.500,79.000,1.000,7.000,5.000,0
"05/03/07","02:09:53",93088.000,"cc",28298.484,1,0.100,73163.000,0.200,17720.000,0.300,2145.000,0.500,57.000,1.000,3.000,5.000,0
"05/03/07","02:09:59",92511.000,"cc",28357.984,1,0.100,72751.000,0.200,17654.000,0.300,2031.000,0.500,67.000,1.000,7.000,5.000,1.000
"05/03/07","02:10:05",92551.000,"cc",28382.645,1,0.100,72942.000,0.200,17497.000,0.300,2033.000,0.500,75.000,1.000,4.000,5.000,0
"05/03/07","02:10:11",92565.000,"cc",28336.998,1,0.100,72736.000,0.200,17740.000,0.300,2028.000,0.500,57.000,1.000,4.000,5.000,0
"05/03/07","02:10:17",92090.000,"cc",28265.760,1,0.100,72214.000,0.200,17707.000,0.300,2099.000,0.500,66.000,1.000,4.000,5.000,0
"05/03/07","02:10:23",92274.000,"cc",28276.859,1,0.100,72480.000,0.200,17698.000,0.300,2034.000,0.500,56.000,1.000,6.000,5.000,0
"05/03/07","02:10:29",91634.000,"cc",28322.508,1,0.100,72219.000,0.200,17260.000,0.300,2090.000,0.500,59.000,1.000,6.000,5.000,0
"05/03/07","02:10:35",91846.000,"cc",28386.773,1,0.100,72207.000,0.200,17512.000,0.300,2046.000,0.500,75.000,1.000,6.000,5.000,0
"05/03/07","02:10:41",91571.000,"cc",28347.656,1,0.100,72043.000,0.200,17403.000,0.300,2053.000,0.500,64.000,1.000,8.000,5.000,0
"05/03/07","02:10:47",91319.000,"cc",28272.897,1,0.100,71543.000,0.200,17638.000,0.300,2075.000,0.500,57.000,1.000,6.000,5.000,0
"05/03/07","02:10:53",90917.000,"cc",28297.846,1,0.100,71280.000,0.200,17453.000,0.300,2117.000,0.500,62.000,1.000,5.000,5.000,0
"05/03/07","02:10:59",90084.000,"cc",28356.807,1,0.100,70830.000,0.200,17112.000,0.300,2077.000,0.500,62.000,1.000,3.000,5.000,0
"05/03/07","02:11:05",90060.000,"cc",28341.797,1,0.100,70655.000,0.200,17251.000,0.300,2091.000,0.500,60.000,1.000,3.000,5.000,0
"05/03/07","02:11:11",89940.000,"cc",28302.518,1,0.100,70770.000,0.200,17098.000,0.300,1997.000,0.500,69.000,1.000,6.000,5.000,0
"05/03/07","02:11:17",89647.000,"cc",28279.078,1,0.100,70573.000,0.200,17058.000,0.300,1950.000,0.500,59.000,1.000,7.000,5.000,0
"05/03/07","02:11:23",89535.000,"cc",28332.252,1,0.100,70359.000,0.200,17042.000,0.300,2064.000,0.500,65.000,1.000,5.000,5.000,0
"05/03/07","02:11:29",89242.000,"cc",28338.756,1,0.100,70089.000,0.200,16984.000,0.300,2102.000,0.500,64.000,1.000,3.000,5.000,0
"05/03/07","02:11:35",89499.000,"cc",28362.432,1,0.100,70361.000,0.200,17037.000,0.300,2042.000,0.500,58.000,1.000,1.000,5.000,0
"05/03/07","02:11:41",89291.000,"cc",28303.598,1,0.100,70202.000,0.200,16913.000,0.300,2105.000,0.500,62.000,1.000,9.000,5.000,0
"05/03/07","02:11:47",89453.000,"cc",28235.182,1,0.100,70277.000,0.200,17192.000,0.300,1912.000,0.500,67.000,1.000,5.000,5.000,0
"05/03/07","02:11:53",88392.000,"cc",28282.100,1,0.100,69540.000,0.200,16744.000,0.300,2027.000,0.500,77.000,1.000,4.000,5.000,0
"05/03/07","02:11:59",88613.000,"cc",28367.998,1,0.100,69849.000,0.200,16741.000,0.300,1948.000,0.500,68.000,1.000,7.000,5.000,0
"05/03/07","02:12:05",88613.000,"cc",28347.652,1,0.100,69898.000,0.200,16717.000,0.300,1923.000,0.500,69.000,1.000,6.000,5.000,0
"05/03/07","02:12:11",87872.000,"cc",28293.197,1,0.100,69095.000,0.200,16760.000,0.300,1937.000,0.500,76.000,1.000,4.000,5.000,0
"05/03/07","02:12:17",88076.000,"cc",28269.047,1,0.100,69200.000,0.200,16826.000,0.300,1973.000,0.500,73.000,1.000,4.000,5.000,0
"05/03/07","02:12:23",87883.000,"cc",28322.535,1,0.100,68957.000,0.200,16766.000,0.300,2091.000,0.500,66.000,1.000,3.000,5.000,0
"05/03/07","02:12:29",88392.000,"cc",28345.596,1,0.100,69596.000,0.200,16742.000,0.300,1986.000,0.500,63.000,1.000,5.000,5.000,0
"05/03/07","02:12:35",86789.000,"cc",28304.918,1,0.100,68137.000,0.200,16632.000,0.300,1957.000,0.500,59.000,1.000,4.000,5.000,0
"05/03/07","02:12:41",87182.000,"cc",28300.504,1,0.100,68626.000,0.200,16423.000,0.300,2059.000,0.500,67.000,1.000,7.000,5.000,0
"05/03/07","02:12:47",87159.000,"cc",28297.820,1,0.100,68573.000,0.200,16556.000,0.300,1956.000,0.500,68.000,1.000,6.000,5.000,0
"05/03/07","02:12:53",87104.000,"cc",28335.398,1,0.100,68227.000,0.200,16772.000,0.300,2034.000,0.500,62.000,1.000,9.000,5.000,0
"05/03/07","02:12:59",86667.000,"cc",28337.606,1,0.100,68358.000,0.200,16260.000,0.300,1981.000,0.500,61.000,1.000,7.000,5.000,0
"05/03/07","02:13:05",87050.000,"cc",28340.830,1,0.100,68550.000,0.200,16537.000,0.300,1889.000,0.500,73.000,1.000,1.000,5.000,0
"05/03/07","02:13:11",86035.000,"cc",28335.367,1,0.100,67799.000,0.200,16267.000,0.300,1900.000,0.500,68.000,1.000,1.000,5.000,0
"05/03/07","02:13:17",85546.000,"cc",28341.998,1,0.100,67233.000,0.200,16267.000,0.300,1977.000,0.500,64.000,1.000,5.000,5.000,0
"05/03/07","02:13:23",85853.000,"cc",28313.174,1,0.100,67263.000,0.200,16575.000,0.300,1952.000,0.500,60.000,1.000,3.000,5.000,0
"05/03/07","02:13:29",85519.000,"cc",28288.678,1,0.100,67351.000,0.200,16210.000,0.300,1900.000,0.500,56.000,1.000,2.000,5.000,0
"05/03/07","02:13:35",85851.000,"cc",28294.639,1,0.100,67425.000,0.200,16436.000,0.300,1910.000,0.500,76.000,1.000,4.000,5.000,0
"05/03/07","02:13:41",85429.000,"cc",28311.275,1,0.100,67307.000,0.200,16202.000,0.300,1860.000,0.500,56.000,1.000,4.000,5.000,0
"05/03/07","02:13:47",85388.000,"cc",28367.799,1,0.100,67199.000,0.200,16201.000,0.300,1917.000,0.500,69.000,1.000,2.000,5.000,0
"05/03/07","02:13:53",85968.000,"cc",28327.447,1,0.100,67712.000,0.200,16248.000,0.300,1955.000,0.500,52.000,1.000,1.000,5.000,0
"05/03/07","02:13:59",85384.000,"cc",28330.250,1,0.100,67225.000,0.200,16090.000,0.300,1987.000,0.500,78.000,1.000,4.000,5.000,0
"05/03/07","02:14:05",85256.000,"cc",28322.354,1,0.100,67166.000,0.200,16051.000,0.300,1968.000,0.500,66.000,1.000,5.000,5.000,0
"05/03/07","02:14:11",86125.000,"cc",28273.279,1,0.100,67484.000,0.200,16600.000,0.300,1977.000,0.500,58.000,1.000,6.000,5.000,0
"05/03/07","02:14:17",86064.000,"cc",28295.440,1,0.100,67866.000,0.200,16132.000,0.300,1994.000,0.500,67.000,1.000,5.000,5.000,0
"05/03/07","02:14:23",85533.000,"cc",28328.393,1,0.100,67346.000,0.200,16208.000,0.300,1925.000,0.500,47.000,1.000,7.000,5.000,0
"05/03/07","02:14:29",86275.000,"cc",28356.322,1,0.100,67977.000,0.200,16246.000,0.300,1992.000,0.500,56.000,1.000,4.000,5.000,0
"05/03/07","02:14:35",85776.000,"cc",28379.988,1,0.100,67426.000,0.200,16334.000,0.300,1958.000,0.500,52.000,1.000,6.000,5.000,0
"05/03/07","02:14:41",87020.000,"cc",28277.441,1,0.100,68372.000,0.200,16584.000,0.300,1993.000,0.500,63.000,1.000,8.000,5.000,0
"05/03/07","02:14:47",87729.000,"cc",28286.816,1,0.100,68951.000,0.200,16750.000,0.300,1969.000,0.500,55.000,1.000,4.000,5.000,0
"05/03/07","02:14:53",88371.000,"cc",28296.596,1,0.100,69508.000,0.200,16826.000,0.300,1974.000,0.500,59.000,1.000,4.000,5.000,0
"05/03/07","02:14:59",88888.000,"cc",28257.272,1,0.100,69844.000,0.200,16936.000,0.300,2050.000,0.500,53.000,1.000,5.000,5.000,0
"05/03/07","02:15:05",88517.000,"cc",28343.369,1,0.100,69468.000,0.200,16906.000,0.300,2066.000,0.500,73.000,1.000,4.000,5.000,0
"05/03/07","02:15:11",89257.000,"cc",28313.051,1,0.100,70197.000,0.200,17016.000,0.300,1972.000,0.500,69.000,1.000,3.000,5.000,0
"05/03/07","02:15:17",90434.000,"cc",28257.070,1,0.100,70972.000,0.200,17288.000,0.300,2077.000,0.500,88.000,1.000,9.000,5.000,0
"05/03/07","02:15:23",90180.000,"cc",28364.273,1,0.100,70922.000,0.200,17150.000,0.300,2032.000,0.500,69.000,1.000,7.000,5.000,0
"05/03/07","02:15:29",90495.000,"cc",28354.531,1,0.100,70958.000,0.200,17338.000,0.300,2119.000,0.500,76.000,1.000,4.000,5.000,0
"05/03/07","02:15:35",90284.000,"cc",28292.857,1,0.100,71098.000,0.200,17091.000,0.300,2028.000,0.500,63.000,1.000,4.000,5.000,0
"05/03/07","02:15:41",90540.000,"cc",28337.832,1,0.100,71246.000,0.200,17206.000,0.300,2013.000,0.500,63.000,1.000,12.000,5.000,0
"05/03/07","02:15:47",90961.000,"cc",28324.918,1,0.100,71548.000,0.200,17275.000,0.300,2065.000,0.500,66.000,1.000,7.000,5.000,0
"05/03/07","02:15:53",91579.000,"cc",28283.490,1,0.100,71968.000,0.200,17412.000,0.300,2137.000,0.500,56.000,1.000,6.000,5.000,0
"05/03/07","02:15:59",91807.000,"cc",28277.709,1,0.100,72135.000,0.200,17567.000,0.300,2029.000,0.500,67.000,1.000,9.000,5.000,0
"05/03/07","02:16:05",92673.000,"cc",28341.371,1,0.100,73047.000,0.200,17463.000,0.300,2092.000,0.500,65.000,1.000,6.000,5.000,0
"05/03/07","02:16:11",92581.000,"cc",28357.445,1,0.100,72688.000,0.200,17697.000,0.300,2107.000,0.500,82.000,1.000,7.000,5.000,0
"05/03/07","02:16:17",93088.000,"cc",28288.641,1,0.100,73191.000,0.200,17733.000,0.300,2096.000,0.500,60.000,1.000,8.000,5.000,0
"05/03/07","02:16:23",92388.000,"cc",28252.660,1,0.100,72602.000,0.200,17597.000,0.300,2116.000,0.500,66.000,1.000,7.000,5.000,0
"05/03/07","02:16:29",92501.000,"cc",28339.336,1,0.100,72656.000,0.200,17687.000,0.300,2077.000,0.500,74.000,1.000,7.000,5.000,0
"05/03/07","02:16:35",92072.000,"cc",28343.740,1,0.100,72222.000,0.200,17674.000,0.300,2104.000,0.500,66.000,1.000,6.000,5.000,0
"05/03/07","02:16:41",93071.000,"cc",28274.594,1,0.100,73117.000,0.200,17754.000,0.300,2126.000,0.500,67.000,1.000,7.000,5.000,0
"05/03/07","02:16:47",92712.000,"cc",28397.773,1,0.100,72868.000,0.200,17609.000,0.300,2170.000,0.500,63.000,1.000,2.000,5.000,0
"05/03/07","02:16:53",92791.000,"cc",28317.201,1,0.100,73047.000,0.200,17563.000,0.300,2092.000,0.500,79.000,1.000,10.000,5.000,0
"05/03/07","02:16:59",92481.000,"cc",28264.645,1,0.100,72649.000,0.200,17635.000,0.300,2132.000,0.500,59.000,1.000,6.000,5.000,0
"05/03/07","02:17:05",92391.000,"cc",28341.400,1,0.100,72365.000,0.200,17807.000,0.300,2145.000,0.500,68.000,1.000,6.000,5.000,0
"05/03/07","02:17:11",91986.000,"cc",28360.633,1,0.100,72318.000,0.200,17559.000,0.300,2041.000,0.500,63.000,1.000,5.000,5.000,0
"05/03/07","02:17:17",91824.000,"cc",28327.705,1,0.100,72120.000,0.200,17564.000,0.300,2058.000,0.500,80.000,1.000,2.000,5.000,0
"05/03/07","02:17:23",92163.000,"cc",28306.865,1,0.100,72467.000,0.200,17460.000,0.300,2153.000,0.500,79.000,1.000,4.000,5.000,0